Cocoa Beach, FL

10:34 AM EDT on October 17, 2017 (GMT -0400)
Patrick Air Force Base

Weather History for KCOF - October, 2013

Change the Weather History Date:

Sunday, October 6, 2013

  Actual Average Record
Temperature  
Mean Temperature 82 °F -  
Max Temperature 86 °F 82 °F 91 °F (2001)
Min Temperature 77 °F 73 °F 69 °F (2010)
Cooling Degree Days 16    
Growing Degree Days 32 (Base 50)    
Moisture  
Dew Point 72 °F    
Average Humidity 72    
Maximum Humidity 84    
Minimum Humidity 65    
Precipitation  
Precipitation 0.00 in - - ()
Sea Level Pressure  
Sea Level Pressure 29.95 in    
Wind  
Wind Speed 7 mph (ESE)    
Max Wind Speed 10 mph    
Max Gust Speed -    
Visibility 10 miles    
Events      
Averages and records for this station are not official NWS values.
T = Trace of Precipitation, MM = Missing Value Source: NWS Daily Summary

Daily Weather History Graph

Daily Weather History Graph

Search for Another Location

Airport or City:

Trip Planner

Search our weather history database for the weather conditions in past years. The results will help you decide how hot, cold, wet, or windy it might be!

Date:

Astronomy

Oct. 06, 2013 Rise Set
Actual Time 7:18 AM EDT 7:02 PM EDT
Civil Twilight 6:54 AM EDT 7:25 PM EDT
Nautical Twilight 6:27 AM EDT 7:53 PM EDT
Astronomical Twilight 6:00 AM EDT 8:20 PM EDT
Moon 8:49 AM EDT (10/6) 8:13 PM EDT (10/6)
Length of Visible Light 12h 31m
Length of Day
11h 44m
Waxing Crescent, 3% of the Moon is Illuminated
Oct 6
Waxing Crescent
Oct 11
First Quarter
Oct 18
Full
Oct 26
Last Quarter
Nov 3
New

Hourly Weather History & Observations

Time (EDT) Temp. Heat Index Dew Point Humidity Pressure Visibility Wind Dir Wind Speed Gust Speed Precip Events Conditions
12:58 AM 80.4 °F 84.7 °F 72.7 °F 77% 29.99 in 10.0 mi East 10.4 mph - N/A   Clear
1:58 AM 80.4 °F 84.4 °F 71.8 °F 75% 29.99 in 10.0 mi ESE 9.2 mph - N/A   Clear
2:58 AM 80.4 °F 84.2 °F 71.6 °F 74% 29.96 in 10.0 mi ESE 9.2 mph - N/A   Clear
3:58 AM 80.1 °F 83.6 °F 71.2 °F 74% 29.96 in 10.0 mi SE 6.9 mph - N/A   Clear
4:58 AM 79.9 °F - 71.2 °F 75% 29.95 in 10.0 mi ESE 6.9 mph - N/A   Clear
5:58 AM 79.9 °F - 71.4 °F 75% 29.96 in 10.0 mi SSE 4.6 mph - N/A   Clear
6:23 AM 80.6 °F 84.6 °F 71.6 °F 74% 29.94 in 10.0 mi SSE 3.5 mph - N/A   Mostly Cloudy
6:38 AM 80.6 °F 83.9 °F 69.8 °F 70% 29.95 in 10.0 mi SE 5.8 mph - N/A   Mostly Cloudy
6:58 AM 80.1 °F 83.4 °F 70.9 °F 73% 29.96 in 10.0 mi SE 5.8 mph - N/A   Partly Cloudy
7:58 AM 77.5 °F - 72.3 °F 84% 29.98 in 10.0 mi West 3.5 mph - N/A   Partly Cloudy
8:58 AM 81.1 °F 86.0 °F 73.0 °F 76% 29.99 in 10.0 mi WNW 2.3 mph - N/A   Clear
9:58 AM 82.9 °F 88.5 °F 72.5 °F 71% 29.99 in 10.0 mi West 3.5 mph - N/A   Clear
10:58 AM 84.2 °F 90.3 °F 72.7 °F 68% 29.99 in 10.0 mi East 5.8 mph - N/A   Clear
11:58 AM 85.1 °F 92.2 °F 73.6 °F 68% 29.99 in 10.0 mi ESE 8.1 mph - N/A   Clear
12:58 PM 86.5 °F 94.2 °F 73.6 °F 65% 29.98 in 10.0 mi East 5.8 mph - N/A   Clear
1:58 PM 86.4 °F 93.8 °F 73.2 °F 65% 29.96 in 10.0 mi East 8.1 mph - N/A   Clear
2:58 PM 86.2 °F 94.2 °F 73.9 °F 67% 29.94 in 10.0 mi East 9.2 mph - N/A   Clear
3:58 PM 86.2 °F 93.4 °F 73.0 °F 65% 29.91 in 10.0 mi East 8.1 mph - N/A   Clear
4:58 PM 85.3 °F 93.0 °F 74.1 °F 69% 29.91 in 10.0 mi East 10.4 mph - N/A   Clear
5:58 PM 82.9 °F 88.8 °F 73.2 °F 72% 29.91 in 10.0 mi SE 10.4 mph - N/A   Partly Cloudy
6:58 PM 82.4 °F 87.0 °F 71.4 °F 69% 29.91 in 10.0 mi SE 5.8 mph - N/A   Partly Cloudy
7:58 PM 81.7 °F 86.7 °F 72.5 °F 74% 29.93 in 10.0 mi SE 5.8 mph - N/A   Partly Cloudy
8:58 PM 81.3 °F 85.9 °F 72.5 °F 74% 29.93 in 10.0 mi ESE 6.9 mph - N/A   Partly Cloudy
9:58 PM 81.3 °F 86.1 °F 72.9 °F 75% 29.93 in 10.0 mi SE 8.1 mph - N/A   Partly Cloudy
10:58 PM 81.1 °F 85.8 °F 72.5 °F 75% 29.93 in 10.0 mi SE 8.1 mph - N/A   Clear
11:58 PM 81.0 °F 85.8 °F 73.2 °F 77% 29.91 in 10.0 mi SE 8.1 mph - N/A   Clear